www.pogodaiklimat.ru

Погода и климат >> Архив погоды >> Бангладеш >> Саидпур


ПОГОДА в Саидпуре

  • Прогноз погоды в Саидпуре
  • Монитор погоды в Саидпуре

АРХИВ ПОГОДЫ в Саидпуре

Время (UTC), дата Ветер
(напр.,м/с)
 
Видим.   Явления Облачность Т
(С)
Тd
(С)
f
(%)
Тe
(С)
Тes
(С)
Комфортность P
(гПа)
Po
(гПа)
Тmin
(С)
Tmax
(С)
R
(мм)
R24
(мм)
S
(см)
00 17.08 штиль 0 1200 м дымка 8/5 450 м
[Sc As op]
+27.6 +27.0 97 +43 +43 опасность
перегрева
1002.5 998.0
03 17.08 ЮВ 3 3000 м мгла 8/5 450 м
[Sc As op]
+30.3 +26.0 78 +46 +48 опасность
перегрева
1004.3 999.8 +26.5
06 17.08 ЮВ 3 4000 м мгла 6/5 450 м
[Sc diur, vesp As op]
+32.6 +27.0 72 +50 +58 опасность
перегрева
1003.5 999.0
09 17.08 ЮВ 3 6000 м мгла 8/6 480 м
[Sc diur, vesp Ac trans]
+34.5 +27.0 65 +52 +55 опасность
перегрева
1001.6 997.2
12 17.08 СВ 4 6000 м мгла 6/5 450 м
[Sc diur, vesp As op]
+33.5 +26.0 65 +49 +49 опасность
перегрева
1000.7 996.3 +34.6
15 17.08 С 3 5000 м мгла 6/4 450 м
[Sc As op]
+30.5 +27.0 82 +48 +48 опасность
перегрева
1003.5 999.1
18 17.08 штиль 0 5000 м мгла 3/0
[Ac trans]
+28.8 +26.0 85 +43 +43 опасность
перегрева
1003.8 999.3
00 18.08 штиль 0 5000 м мгла 5/0
[Ac trans]
+28.0 +26.0 89 +42 +42 опасность
перегрева
1003.9 999.4
03 18.08 СВ 4 7000 м 8/5 450 м
[Sc diur, vesp Ac trans]
+31.0 +25.0 70 +44 +47 опасность
перегрева
1006.1 1001.6 +27.5
06 18.08 СВ 3 7000 м 8/3 450 м
[Sc diur, vesp Ac trans]
+33.2 +24.0 59 +45 +52 опасность
перегрева
1005.5 1001.0
09 18.08 7000 м н/о +34.0 +25.0 59 +47 +52 опасность
перегрева
1003.3 998.9
12 18.08 7000 м н/о +32.0 +25.0 67 +46 +46 опасность
перегрева
1002.8 998.4 +34.1
15 18.08 СВ 3 6000 м мгла 8/4 480 м
[Sc As op]
+30.0 +27.0 84 +47 +47 опасность
перегрева
1004.7 1000.2
18 18.08 СВ 3 6000 м мгла 4/0
[Ac trans]
+29.5 +27.0 86 +46 +46 опасность
перегрева
1006.0 1001.6
00 19.08 СВ 2 5000 м мгла 4/0
[Ac trans]
+28.0 +26.0 89 +42 +42 опасность
перегрева
1005.7 1001.2
03 19.08 СВ 5 5000 м мгла 6/6 450 м
[Sc diur, vesp]
+31.0 +26.0 75 +46 +49 опасность
перегрева
1006.9 1002.4 +27.2
06 19.08 СВ 3 5000 м слаб. дождь 9/6 450 м
[Sc diur, vesp As op]
+30.8 +25.0 71 +44 +47 опасность
перегрева
1006.8 1002.3 0.0
09 19.08 штиль 0 6000 м 6/6 540 м
[Cu Sc]
+33.0 +24.0 59 +45 +51 опасность
перегрева
1004.4 999.9
12 19.08 СВ 3 6000 м мгла 5/5 480 м
[Sc diur, vesp]
+32.4 +24.0 61 +44 +44 опасность
перегрева
1002.8 998.3 +34.3
15 19.08 штиль 0 6000 м мгла ясно +30.0 +27.0 84 +47 +47 опасность
перегрева
1004.7 1000.2
18 19.08 ЮВ 3 5000 м мгла 4/0
[Ac trans]
+29.3 +27.0 87 +46 +46 опасность
перегрева
1005.8 1001.6
00 20.08 штиль 0 5000 м мгла 8/5 480 м
[Sc As op]
+27.8 +26.0 90 +42 +42 опасность
перегрева
1004.7 1000.2
03 20.08 ЮВ 3 5000 м мгла 8/5 480 м
[Sc As op]
+30.4 +26.0 77 +45 +48 опасность
перегрева
1005.8 1001.4 +27.0
06 20.08 Ю 2 6000 м мгла 6/4 540 м
[Sc As op]
+32.8 +27.0 72 +51 +60 опасность
перегрева
1004.7 1000.8
09 20.08 СВ 3 6000 м мгла 8/5 540 м
[Cu Sc As op]
+34.2 +23.0 52 +44 +47 опасность
перегрева
1002.1 997.6
12 20.08 СВ 3 6000 м мгла 4/4 750 м
[Cu hum]
+34.0 +26.0 63 +50 +50 опасность
перегрева
1000.2 995.8 +35.0
15 20.08 штиль 0 5000 м мгла ясно +30.3 +27.0 83 +48 +48 опасность
перегрева
1002.7 998.2
18 20.08 штиль 0 5000 м мгла ясно +30.0 +27.0 84 +47 +47 опасность
перегрева
1003.6 999.1
00 21.08 штиль 0 3500 м мгла 4/0
[Ac trans]
+28.2 +26.0 88 +42 +43 опасность
перегрева
1003.2 998.7
03 21.08 Ю 2 5000 м мгла 6/4 540 м
[Sc As trans]
+32.5 +27.0 73 +51 +56 опасность
перегрева
1003.5 999.1 +27.0
06 21.08 ЮВ 3 5000 м мгла 6/4 480 м
[Sc As op]
+34.4 +25.0 58 +48 +55 опасность
перегрева
1003.3 998.9
09 21.08 7000 м н/о +36.0 +24.0 50 +47 +54 опасность
перегрева
1001.7 997.3
12 21.08 штиль 0 7000 м 6/3 750 м
[Cu hum Ac trans]
+34.4 +25.0 58 +48 +48 опасность
перегрева
1001.1 996.7 +36.2
15 21.08 штиль 0 5000 м мгла ясно +30.5 +28.0 87 +51 +51 опасность
перегрева
1002.4 997.9
18 21.08 штиль 0 5000 м мгла ясно +29.4 +28.0 92 +49 +49 опасность
перегрева
1003.1 998.6
00 22.08 штиль 0 800 м туман 5/0
[Ac trans]
+29.0 +28.0 94 +48 +48 опасность
перегрева
1001.2 996.7
03 22.08 штиль 0 6000 м мгла {туман} 4/3 480 м
[Sc diur, vesp Ac trans]
+33.6 +29.0 77 +57 +67 опасность
перегрева
1002.1 997.7 +28.5
06 22.08 штиль 0 6000 м 5/4 480 м
[Sc diur, vesp Ac trans]
+36.3 +24.0 49 +48 +63 опасность
перегрева
1001.8 997.4
09 22.08 штиль 0 7000 м 8/4 540 м
[Sc As op]
+35.8 +25.0 54 +49 +54 опасность
перегрева
1000.0 995.7
12 22.08 СВ 3 3000 м гроза без осадков 10/6 450 м
[Cb cap As op]
+32.0 +28.0 79 +52 +52 опасность
перегрева
1000.2 995.8 +36.8
15 22.08 штиль 0 5000 м мгла {гроза, дождь} 10/5 450 м
[Sc As op]
+29.0 +28.0 94 +48 +48 опасность
перегрева
1001.8 997.4
18 22.08 СВ 3 5000 м мгла {гроза, дождь} 10/5 450 м
[Sc As op]
+29.2 +27.0 88 +46 +46 опасность
перегрева
1003.1 998.6 2
00 23.08 штиль 0 3000 м слаб. дождь 10/6 420 м
[Sc As op]
+28.4 +27.0 92 +45 +45 опасность
перегрева
1002.2 997.7 0.6
03 23.08 СВ 2 4000 м мгла 9/5 450 м
[Sc As op]
+29.8 +27.0 85 +47 +49 опасность
перегрева
1003.3 998.8 +27.8
06 23.08 СВ 3 5000 м мгла 9/5 450 м
[Sc As op]
+32.4 +26.0 69 +48 +51 опасность
перегрева
1003.6 999.2
09 23.08 СВ 3 5000 м мгла 9/5 450 м
[Sc diur, vesp As trans]
+32.9 +27.0 71 +51 +53 опасность
перегрева
1000.6 996.2
12 23.08 СВ 3 5000 м мгла 9/5 450 м
[Sc diur, vesp As trans]
+30.3 +25.0 73 +43 +43 опасность
перегрева
1001.3 996.9 +33.2

 

Местоположение метеостанции Саидпур (Бангладеш): широта 25.75 долгота 88.92 высота над уровнем моря 39 м.

В архиве по умолчанию представлена погода в Саидпуре за последнюю неделю. Архивные данные за месяц целиком и за предыдущие месяцы, начиная с января 2011 года, Вы можете получить, выбрав интересующий диапазон дат из раскрывающегося списка и нажав кнопку "Ввод!".


*Определитесь, кто Вы:
робот инопланетянин человек

Внимание! Время в таблицах - всемирное. Для получения местного времени необходимо прибавить поправку, которая равна 6.5 ч.

Смотрите также архив погоды в соседних городах и на ближайших метеорологических станциях:

Погода в Динаджпуре (Бангладеш) (27 км)
Погода в Рангпуре (Бангладеш) (31 км)
Погода в Димле (Бангладеш) (53 км)
Погода в Балургхате (Западная Бенгалия, Индия) (61 км)
Погода в Раджархэте (Бангладеш) (63 км)
Погода в Тетулии (Бангладеш) (73 км)
Погода в Куч-Бихар (Западная Бенгалия, Индия) (85 км)
Погода в Джалпайгури (Западная Бенгалия, Индия) (89 км)
Погода в Богре (Бангладеш) (110 км)
Погода в Дхубри (Ассам, Индия) (110 км)

Пояснения к столбцам:

Ветер - указаны скорость ветра в м/с - средняя за 10 мин, порывы в срок и между сроками (в фигурных скобках) и направление, откуда дует ветер: С - северный, СВ - северо-восточный, В - восточный, ЮВ - юго-восточный, Ю - южный, ЮЗ - юго-западный, З - западный, СЗ - северо-западный.
Видимость - горизонтальная дальность видимости в метрах или километрах. При видимости от 1 до 10 км при отсутствии осадков обычно наблюдается дымка, при ухудшении видимости до 1 км и менее - туман. В сухую погоду видимость может ухудшаться дымом, пылью или мглою.
Явления - указаны атмосферные явления, наблюдавшиеся в срок или в последний час перед сроком; фигурными скобками обозначены явления, наблюдавшиеся между сроками (за 1-3 часа до срока); квадратными скобками обозначены град или гололедные отложения с указанием их диаметра в мм.
Облачность - указаны через наклонную черту общая и нижняя облачность в баллах и высота нижней границы облаков в метрах; квадратными скобками обозначены формы облаков: Ci - перистые, Cs - перисто-слоистые, Cc - перисто-кучевые, Ac - высококучевые, As - высокослоистые, Sc - слоисто-кучевые, Ns - слоисто-дождевые, Cu - кучевые, Cb - кучево-дождевые. Подробнее классификацию облаков см. в Атласе облаков (PDF).
T - Температура воздуха - температура, измеренная на высоте 2 м над землей.
Td - Температура точки росы - температура, при понижении до которой содержащийся в воздухе водяной пар достигнет насыщения.
f - Относительная влажность воздуха - влажноcть воздуха, измеренная на высоте 2 м над землей.
Te - Эффективная температура - температура, которую ощущает одетый по сезону человек в тени. Характеристика душности погоды. При расчете учитывается влияние влажности воздуха и скорости ветра на теплоощущения человека.
Tes - Эффективная температура на солнце - температура, которую ощущает человек, с поправкой на солнечный нагрев. Характеристика знойности погоды. Зависит от высоты солнца над горизонтом, облачности и скорости ветра. Ночью, в пасмурную погоду, а также при ветре 12 м/с и более поправка равна нулю.
P - Атмосферное давление - приведенное к уровню моря атмосферное давление.
Po - Атмосферное давление - измеренное на уровне метеостанции атмосферное давление.
Tmin - Минимальная температура - минимум температуры воздуха на высоте 2 м над землей.
Tmax - Максимальная температура - максимум температуры воздуха на высоте 2 м над землей.
R - Количество осадков - Количество выпавших осадков за период времени, мм. При наведении курсора мыши на число - период времени, за который выпало указанное количество осадков.
R24 - Количество осадков - Количество выпавших осадков за 24 часа, мм.
S - Снежный покров - Высота снежного покрова, см. При наведении курсора мыши на число - состояние снежного покрова и степень покрытия местности в баллах.